Location: Unspecified
(0.0000°N, 0.0000°E)
Time: 11:46:58
(UTC+00:00)

Explorer 11/Cluster Stage 4 - Pass Details

Date: 04 October 2020
Orbit: 467 x 1258 km, 28.8° (Epoch: 28 October)

Event Time Altitude Azimuth Distance (km) Brightness Sun altitude
Rises 09:04:29 0° 260° (W) 4,197 9.9 48.8°
Reaches altitude 10° 09:08:52 10° 240° (WSW) 3,219 9.5 49.8°
Maximum altitude 09:13:28 16° 205° (SSW) 2,728 9.4 51.0°
Drops below altitude 10° 09:17:54 10° 170° (S) 3,057 9.9 52.1°
Sets 09:21:55 0° 149° (SSE) 3,886 10.5 53.1°
